Wetterdaten: Woche 07.12.15 - 13.12.15 (KW50)
Datum Zeit Temperatur Luftfeuchte Luftdruck Niederschlag Windrichtung Sonnenschein Solar Wind
07.12.2015 00:00 2,6 C 98 % 1033,2 hPa 0,0 l/m N 0,00 h 0 W/m 0,3 km/h (0 Bft)
07.12.2015 01:00 2,6 C 98 % 1033,3 hPa 0,0 l/m N 0,00 h 0 W/m 0,0 km/h (0 Bft)
07.12.2015 02:00 2,2 C 98 % 1033,3 hPa 0,0 l/m N 0,00 h 0 W/m 0,0 km/h (0 Bft)
07.12.2015 03:00 1,4 C 98 % 1033,4 hPa 0,0 l/m N 0,00 h 0 W/m 0,0 km/h (0 Bft)
07.12.2015 04:00 1,0 C 98 % 1033,5 hPa 0,0 l/m N 0,00 h 0 W/m 0,0 km/h (0 Bft)
07.12.2015 05:00 1,1 C 98 % 1033,7 hPa 0,0 l/m W-SW 0,00 h 0 W/m 0,5 km/h (0 Bft)
07.12.2015 06:00 1,0 C 98 % 1034,2 hPa 0,0 l/m N 0,00 h 0 W/m 0,3 km/h (0 Bft)
07.12.2015 07:00 0,5 C 98 % 1034,4 hPa 0,0 l/m N 0,00 h 5 W/m 0,0 km/h (0 Bft)
07.12.2015 08:00 0,2 C 98 % 1034,6 hPa 0,0 l/m N 0,00 h 23 W/m 0,0 km/h (0 Bft)
07.12.2015 09:00 0,5 C 98 % 1035,0 hPa 0,0 l/m N 0,17 h 61 W/m 0,0 km/h (0 Bft)
07.12.2015 10:00 2,7 C 99 % 1035,0 hPa 0,0 l/m N 0,58 h 145 W/m 0,4 km/h (0 Bft)
07.12.2015 11:00 5,1 C 100 % 1034,6 hPa 0,0 l/m W-SW 0,92 h 240 W/m 1,6 km/h (1 Bft)
07.12.2015 12:00 7,4 C 100 % 1034,0 hPa 0,0 l/m W-SW 1,00 h 318 W/m 6,5 km/h (2 Bft)
07.12.2015 13:00 9,8 C 85 % 1033,0 hPa 0,0 l/m W-SW 1,00 h 288 W/m 2,3 km/h (1 Bft)
07.12.2015 14:00 11,6 C 69 % 1032,2 hPa 0,0 l/m N 1,00 h 203 W/m 0,7 km/h (0 Bft)
07.12.2015 15:00 12,0 C 67 % 1031,9 hPa 0,0 l/m W-SW 0,50 h 64 W/m 1,2 km/h (1 Bft)
07.12.2015 16:00 9,6 C 73 % 1031,9 hPa 0,0 l/m N 0,00 h 8 W/m 0,5 km/h (0 Bft)
07.12.2015 17:00 7,1 C 81 % 1032,0 hPa 0,0 l/m W-SW 0,00 h 0 W/m 3,1 km/h (1 Bft)
07.12.2015 18:00 6,0 C 87 % 1032,0 hPa 0,0 l/m W-SW 0,00 h 0 W/m 2,3 km/h (1 Bft)
07.12.2015 19:00 5,2 C 90 % 1032,3 hPa 0,0 l/m W-SW 0,00 h 0 W/m 3,2 km/h (1 Bft)
07.12.2015 20:00 4,6 C 92 % 1032,3 hPa 0,0 l/m W-SW 0,00 h 0 W/m 3,1 km/h (1 Bft)
07.12.2015 21:00 3,8 C 92 % 1032,4 hPa 0,0 l/m W-SW 0,00 h 0 W/m 0,7 km/h (0 Bft)
07.12.2015 22:00 3,4 C 94 % 1032,4 hPa 0,0 l/m N 0,00 h 0 W/m 1,1 km/h (0 Bft)
07.12.2015 23:00 2,8 C 93 % 1032,5 hPa 0,0 l/m N 0,00 h 0 W/m 0,0 km/h (0 Bft)
08.12.2015 00:00 2,8 C 95 % 1032,5 hPa 0,0 l/m N 0,00 h 0 W/m 0,0 km/h (0 Bft)
08.12.2015 01:00 2,2 C 95 % 1032,2 hPa 0,0 l/m N 0,00 h 0 W/m 0,0 km/h (0 Bft)
08.12.2015 02:00 1,1 C 95 % 1032,1 hPa 0,2 l/m N 0,00 h 0 W/m 0,4 km/h (0 Bft)
08.12.2015 03:00 0,7 C 96 % 1031,9 hPa 0,0 l/m N 0,00 h 0 W/m 0,3 km/h (0 Bft)
08.12.2015 04:00 0,5 C 96 % 1031,7 hPa 0,0 l/m W-SW 0,00 h 0 W/m 0,7 km/h (0 Bft)
08.12.2015 05:00 0,3 C 97 % 1031,8 hPa 0,0 l/m N 0,00 h 0 W/m 0,0 km/h (0 Bft)
08.12.2015 06:00 0,3 C 97 % 1031,9 hPa 0,0 l/m W-SW 0,00 h 0 W/m 1,2 km/h (1 Bft)
08.12.2015 07:00 0,6 C 97 % 1032,1 hPa 0,0 l/m SW 0,00 h 0 W/m 6,6 km/h (2 Bft)
08.12.2015 08:00 0,6 C 98 % 1032,4 hPa 0,0 l/m S-SW 0,00 h 7 W/m 9,7 km/h (2 Bft)
08.12.2015 09:00 0,9 C 98 % 1032,6 hPa 0,0 l/m SW 0,00 h 28 W/m 9,8 km/h (2 Bft)
08.12.2015 10:00 1,6 C 99 % 1032,8 hPa 0,0 l/m SW 0,00 h 49 W/m 7,6 km/h (2 Bft)
08.12.2015 11:00 2,8 C 99 % 1032,5 hPa 0,0 l/m SW 0,00 h 60 W/m 9,8 km/h (2 Bft)
08.12.2015 12:00 3,2 C 99 % 1032,2 hPa 0,0 l/m S-SW 0,00 h 59 W/m 11,0 km/h (2 Bft)
08.12.2015 13:00 3,2 C 99 % 1031,9 hPa 0,0 l/m SW 0,00 h 58 W/m 10,0 km/h (2 Bft)
08.12.2015 14:00 3,2 C 99 % 1031,7 hPa 0,0 l/m S-SW 0,00 h 52 W/m 12,2 km/h (2 Bft)
08.12.2015 15:00 2,9 C 99 % 1031,8 hPa 0,0 l/m S-SW 0,00 h 23 W/m 12,8 km/h (3 Bft)
08.12.2015 16:00 2,7 C 99 % 1032,0 hPa 0,0 l/m S-SW 0,00 h 8 W/m 9,5 km/h (2 Bft)
08.12.2015 17:00 2,1 C 99 % 1032,3 hPa 0,0 l/m S-SW 0,00 h 0 W/m 7,0 km/h (2 Bft)
08.12.2015 18:00 1,8 C 99 % 1032,7 hPa 0,0 l/m S-SW 0,00 h 0 W/m 7,5 km/h (2 Bft)
08.12.2015 19:00 1,6 C 99 % 1033,0 hPa 0,0 l/m SW 0,00 h 0 W/m 11,7 km/h (2 Bft)
08.12.2015 20:00 1,4 C 99 % 1032,8 hPa 0,0 l/m SW 0,00 h 0 W/m 5,3 km/h (1 Bft)
08.12.2015 21:00 1,1 C 99 % 1032,9 hPa 0,0 l/m SW 0,00 h 0 W/m 3,1 km/h (1 Bft)
08.12.2015 22:00 0,8 C 99 % 1033,0 hPa 0,0 l/m SW 0,00 h 0 W/m 2,4 km/h (1 Bft)
08.12.2015 23:00 0,6 C 99 % 1032,8 hPa 0,0 l/m SW 0,00 h 0 W/m 8,3 km/h (2 Bft)
09.12.2015 00:00 0,7 C 99 % 1032,7 hPa 0,0 l/m S-SW 0,00 h 0 W/m 9,7 km/h (2 Bft)
09.12.2015 01:00 0,8 C 99 % 1032,7 hPa 0,0 l/m S-SW 0,00 h 0 W/m 9,8 km/h (2 Bft)
09.12.2015 02:00 1,0 C 99 % 1033,0 hPa 0,0 l/m S-SW 0,00 h 0 W/m 9,3 km/h (2 Bft)
09.12.2015 03:00 1,3 C 99 % 1032,8 hPa 0,2 l/m S-SW 0,00 h 0 W/m 7,9 km/h (2 Bft)
09.12.2015 04:00 1,6 C 99 % 1032,5 hPa 0,0 l/m S-SW 0,00 h 0 W/m 9,0 km/h (2 Bft)
09.12.2015 05:00 2,1 C 100 % 1032,7 hPa 0,4 l/m S-SW 0,00 h 0 W/m 6,6 km/h (2 Bft)
09.12.2015 06:00 2,3 C 100 % 1032,8 hPa 1,2 l/m N 0,00 h 0 W/m 0,9 km/h (0 Bft)
09.12.2015 07:00 2,7 C 100 % 1033,3 hPa 2,6 l/m S-SW 0,00 h 0 W/m 1,9 km/h (1 Bft)
09.12.2015 08:00 3,0 C 100 % 1034,3 hPa 2,0 l/m N 0,00 h 6 W/m 0,3 km/h (0 Bft)
09.12.2015 09:00 3,4 C 100 % 1035,6 hPa 0,4 l/m S-SW 0,00 h 12 W/m 0,9 km/h (0 Bft)
09.12.2015 10:00 3,5 C 100 % 1036,6 hPa 0,0 l/m S-SW 0,00 h 32 W/m 4,3 km/h (1 Bft)
09.12.2015 11:00 4,3 C 100 % 1037,1 hPa 0,0 l/m S-SW 0,17 h 143 W/m 8,4 km/h (2 Bft)
09.12.2015 12:00 4,9 C 100 % 1037,4 hPa 0,0 l/m S-SW 0,00 h 79 W/m 11,8 km/h (2 Bft)
09.12.2015 13:00 5,0 C 100 % 1037,5 hPa 0,0 l/m S-SW 0,00 h 52 W/m 3,2 km/h (1 Bft)
09.12.2015 14:00 5,5 C 100 % 1037,5 hPa 0,0 l/m S-SW 0,50 h 156 W/m 2,4 km/h (1 Bft)
09.12.2015 15:00 5,7 C 100 % 1037,8 hPa 0,0 l/m SW 0,08 h 44 W/m 2,1 km/h (1 Bft)
09.12.2015 16:00 5,1 C 100 % 1038,5 hPa 0,0 l/m N 0,08 h 11 W/m 0,0 km/h (0 Bft)
09.12.2015 17:00 4,0 C 100 % 1039,2 hPa 0,0 l/m N 0,00 h 0 W/m 0,0 km/h (0 Bft)
09.12.2015 18:00 3,2 C 99 % 1039,6 hPa 0,0 l/m N 0,00 h 0 W/m 0,0 km/h (0 Bft)
09.12.2015 19:00 2,8 C 99 % 1039,8 hPa 0,0 l/m SW 0,00 h 0 W/m 0,9 km/h (0 Bft)
09.12.2015 20:00 1,5 C 99 % 1039,7 hPa 0,0 l/m SW 0,00 h 0 W/m 0,5 km/h (0 Bft)
09.12.2015 21:00 1,0 C 99 % 1039,6 hPa 0,0 l/m SW 0,00 h 0 W/m 0,8 km/h (0 Bft)
09.12.2015 22:00 0,6 C 99 % 1039,4 hPa 0,0 l/m N 0,00 h 0 W/m 0,0 km/h (0 Bft)
09.12.2015 23:00 0,0 C 99 % 1039,4 hPa 0,0 l/m N 0,00 h 0 W/m 0,3 km/h (0 Bft)
10.12.2015 00:00 -0,4 C 99 % 1039,3 hPa 0,0 l/m N 0,00 h 0 W/m 0,0 km/h (0 Bft)
10.12.2015 01:00 -0,7 C 99 % 1038,8 hPa 0,0 l/m N 0,00 h 0 W/m 0,0 km/h (0 Bft)
10.12.2015 02:00 -1,0 C 99 % 1038,8 hPa 0,0 l/m N 0,00 h 0 W/m 0,1 km/h (0 Bft)
10.12.2015 03:00 -1,1 C 99 % 1038,5 hPa 0,0 l/m SW 0,00 h 0 W/m 0,5 km/h (0 Bft)
10.12.2015 04:00 -1,2 C 99 % 1038,0 hPa 0,0 l/m N 0,00 h 0 W/m 0,0 km/h (0 Bft)
10.12.2015 05:00 -1,5 C 99 % 1037,8 hPa 0,0 l/m SW 0,00 h 0 W/m 0,0 km/h (0 Bft)
10.12.2015 06:00 -2,2 C 99 % 1037,9 hPa 0,0 l/m SW 0,00 h 0 W/m 1,6 km/h (1 Bft)
10.12.2015 07:00 -2,9 C 99 % 1038,0 hPa 0,0 l/m SW 0,00 h 0 W/m 4,9 km/h (1 Bft)
10.12.2015 08:00 -3,2 C 99 % 1038,2 hPa 0,0 l/m N 0,00 h 16 W/m 1,7 km/h (1 Bft)
10.12.2015 09:00 -3,2 C 99 % 1038,0 hPa 0,0 l/m N 0,00 h 47 W/m 0,3 km/h (0 Bft)
10.12.2015 10:00 -2,8 C 99 % 1037,9 hPa 0,0 l/m N 0,00 h 99 W/m 0,4 km/h (0 Bft)
10.12.2015 11:00 -1,8 C 99 % 1037,3 hPa 0,0 l/m W-SW 0,08 h 139 W/m 1,2 km/h (1 Bft)
10.12.2015 12:00 -0,6 C 100 % 1036,4 hPa 0,2 l/m N 0,17 h 144 W/m 0,7 km/h (0 Bft)
10.12.2015 13:00 0,4 C 100 % 1035,6 hPa 0,0 l/m W-SW 0,42 h 137 W/m 0,8 km/h (0 Bft)
10.12.2015 14:00 1,0 C 100 % 1035,0 hPa 0,0 l/m W-SW 0,00 h 51 W/m 0,5 km/h (0 Bft)
10.12.2015 15:00 0,9 C 99 % 1034,6 hPa 0,0 l/m W-SW 0,00 h 29 W/m 6,6 km/h (2 Bft)
10.12.2015 16:00 0,2 C 99 % 1034,5 hPa 0,0 l/m W-SW 0,00 h 7 W/m 4,3 km/h (1 Bft)
10.12.2015 17:00 0,2 C 99 % 1034,5 hPa 0,0 l/m W-SW 0,00 h 0 W/m 7,4 km/h (2 Bft)
10.12.2015 18:00 -0,0 C 99 % 1034,4 hPa 0,0 l/m SW 0,00 h 0 W/m 11,7 km/h (2 Bft)
10.12.2015 19:00 -0,2 C 99 % 1034,2 hPa 0,0 l/m SW 0,00 h 0 W/m 13,3 km/h (3 Bft)
10.12.2015 20:00 -0,3 C 99 % 1033,8 hPa 0,0 l/m SW 0,00 h 0 W/m 13,7 km/h (3 Bft)
10.12.2015 21:00 -0,2 C 99 % 1033,5 hPa 0,0 l/m SW 0,00 h 0 W/m 15,8 km/h (3 Bft)
10.12.2015 22:00 -0,1 C 99 % 1033,2 hPa 0,0 l/m SW 0,00 h 0 W/m 16,4 km/h (3 Bft)
10.12.2015 23:00 -0,2 C 99 % 1032,9 hPa 0,0 l/m SW 0,00 h 0 W/m 13,8 km/h (3 Bft)
11.12.2015 00:00 -0,3 C 99 % 1032,8 hPa 0,0 l/m SW 0,00 h 0 W/m 8,4 km/h (2 Bft)
11.12.2015 01:00 -0,4 C 99 % 1032,6 hPa 0,0 l/m S-SW 0,00 h 0 W/m 10,4 km/h (2 Bft)
11.12.2015 02:00 -0,4 C 99 % 1032,3 hPa 0,0 l/m S-SW 0,00 h 0 W/m 9,7 km/h (2 Bft)
11.12.2015 03:00 -0,4 C 99 % 1032,1 hPa 0,0 l/m S-SW 0,00 h 0 W/m 4,9 km/h (1 Bft)
11.12.2015 04:00 -0,4 C 99 % 1031,7 hPa 0,0 l/m S-SW 0,00 h 0 W/m 8,8 km/h (2 Bft)
11.12.2015 05:00 -0,5 C 99 % 1031,6 hPa 0,0 l/m S-SW 0,00 h 0 W/m 8,3 km/h (2 Bft)
11.12.2015 06:00 -0,8 C 99 % 1031,7 hPa 0,0 l/m S-SW 0,00 h 0 W/m 5,1 km/h (1 Bft)
11.12.2015 07:00 -1,2 C 99 % 1031,1 hPa 0,0 l/m S 0,00 h 5 W/m 12,9 km/h (3 Bft)
11.12.2015 08:00 -1,2 C 99 % 1031,4 hPa 0,0 l/m S 0,08 h 22 W/m 10,2 km/h (2 Bft)
11.12.2015 09:00 -1,0 C 99 % 1032,1 hPa 0,0 l/m S 0,00 h 69 W/m 6,4 km/h (2 Bft)
11.12.2015 10:00 -0,7 C 99 % 1031,7 hPa 0,0 l/m S 0,00 h 103 W/m 8,9 km/h (2 Bft)
11.12.2015 11:00 0,4 C 99 % 1031,5 hPa 0,0 l/m S-SO 1,00 h 216 W/m 7,5 km/h (2 Bft)
11.12.2015 12:00 2,5 C 100 % 1030,7 hPa 0,0 l/m S-SW 1,00 h 269 W/m 13,7 km/h (3 Bft)
11.12.2015 13:00 3,2 C 98 % 1030,4 hPa 0,0 l/m S-SW 0,83 h 216 W/m 16,3 km/h (3 Bft)
11.12.2015 14:00 3,4 C 96 % 1030,0 hPa 0,0 l/m SW 0,25 h 126 W/m 18,0 km/h (3 Bft)
11.12.2015 15:00 3,0 C 95 % 1029,8 hPa 0,0 l/m S-SW 0,00 h 34 W/m 9,8 km/h (2 Bft)
11.12.2015 16:00 2,6 C 95 % 1029,7 hPa 0,0 l/m S-SW 0,00 h 7 W/m 8,3 km/h (2 Bft)
11.12.2015 17:00 2,2 C 95 % 1029,8 hPa 0,0 l/m S-SW 0,00 h 0 W/m 4,5 km/h (1 Bft)
11.12.2015 18:00 1,7 C 96 % 1030,0 hPa 0,0 l/m S-SW 0,00 h 0 W/m 5,8 km/h (1 Bft)
11.12.2015 19:00 2,1 C 97 % 1029,8 hPa 0,0 l/m SW 0,00 h 0 W/m 10,6 km/h (2 Bft)
11.12.2015 20:00 2,7 C 97 % 1029,8 hPa 0,0 l/m SW 0,00 h 0 W/m 12,4 km/h (3 Bft)
11.12.2015 21:00 2,7 C 97 % 1029,7 hPa 0,0 l/m SW 0,00 h 0 W/m 13,3 km/h (3 Bft)
11.12.2015 22:00 3,2 C 95 % 1029,6 hPa 0,0 l/m SW 0,00 h 0 W/m 14,4 km/h (3 Bft)
11.12.2015 23:00 3,2 C 93 % 1029,4 hPa 0,0 l/m SW 0,00 h 0 W/m 16,6 km/h (3 Bft)
12.12.2015 00:00 3,6 C 91 % 1028,9 hPa 0,0 l/m SW 0,00 h 0 W/m 14,1 km/h (3 Bft)
12.12.2015 01:00 3,4 C 90 % 1028,4 hPa 0,0 l/m SW 0,00 h 0 W/m 14,9 km/h (3 Bft)
12.12.2015 02:00 3,0 C 90 % 1028,2 hPa 0,0 l/m SW 0,00 h 0 W/m 12,0 km/h (2 Bft)
12.12.2015 03:00 2,6 C 92 % 1028,2 hPa 0,0 l/m SW 0,00 h 0 W/m 8,9 km/h (2 Bft)
12.12.2015 04:00 2,9 C 92 % 1028,1 hPa 0,0 l/m SW 0,00 h 0 W/m 12,8 km/h (3 Bft)
12.12.2015 05:00 3,6 C 89 % 1027,9 hPa 0,0 l/m SW 0,00 h 0 W/m 16,8 km/h (3 Bft)
12.12.2015 06:00 3,4 C 89 % 1027,8 hPa 0,0 l/m SW 0,00 h 0 W/m 12,4 km/h (3 Bft)
12.12.2015 07:00 3,4 C 90 % 1027,8 hPa 0,0 l/m SW 0,00 h 0 W/m 14,8 km/h (3 Bft)
12.12.2015 08:00 3,7 C 89 % 1028,0 hPa 0,0 l/m SW 0,00 h 20 W/m 11,8 km/h (2 Bft)
12.12.2015 09:00 4,0 C 90 % 1027,9 hPa 0,0 l/m S-SW 0,25 h 88 W/m 11,6 km/h (2 Bft)
12.12.2015 10:00 5,9 C 84 % 1027,8 hPa 0,0 l/m SW 0,67 h 144 W/m 17,6 km/h (3 Bft)
12.12.2015 11:00 7,3 C 76 % 1027,2 hPa 0,0 l/m SW 0,50 h 180 W/m 18,0 km/h (3 Bft)
12.12.2015 12:00 8,3 C 72 % 1026,6 hPa 0,0 l/m W-SW 1,00 h 256 W/m 16,6 km/h (3 Bft)
12.12.2015 13:00 8,6 C 71 % 1025,7 hPa 0,0 l/m W-SW 0,50 h 169 W/m 16,0 km/h (3 Bft)
12.12.2015 14:00 8,1 C 72 % 1025,2 hPa 0,0 l/m W-SW 0,25 h 118 W/m 13,8 km/h (3 Bft)
12.12.2015 15:00 7,8 C 73 % 1024,8 hPa 0,0 l/m W-SW 0,00 h 45 W/m 8,4 km/h (2 Bft)
12.12.2015 16:00 7,0 C 76 % 1024,5 hPa 0,0 l/m W-SW 0,17 h 11 W/m 3,2 km/h (1 Bft)
12.12.2015 17:00 5,9 C 78 % 1024,3 hPa 0,0 l/m N 0,00 h 0 W/m 0,0 km/h (0 Bft)
12.12.2015 18:00 4,0 C 82 % 1023,9 hPa 0,0 l/m N 0,00 h 0 W/m 0,0 km/h (0 Bft)
12.12.2015 19:00 2,5 C 85 % 1023,7 hPa 0,0 l/m N 0,00 h 0 W/m 0,0 km/h (0 Bft)
12.12.2015 20:00 1,5 C 87 % 1023,3 hPa 0,0 l/m N 0,00 h 0 W/m 0,0 km/h (0 Bft)
12.12.2015 21:00 0,6 C 88 % 1022,9 hPa 0,0 l/m N 0,00 h 0 W/m 0,0 km/h (0 Bft)
12.12.2015 22:00 -0,1 C 90 % 1022,5 hPa 0,0 l/m W-SW 0,00 h 0 W/m 0,8 km/h (0 Bft)
12.12.2015 23:00 -0,4 C 93 % 1022,2 hPa 0,0 l/m N 0,00 h 0 W/m 0,3 km/h (0 Bft)
13.12.2015 00:00 -0,9 C 93 % 1021,9 hPa 0,0 l/m N 0,00 h 0 W/m 0,3 km/h (0 Bft)
13.12.2015 01:00 -1,3 C 94 % 1021,5 hPa 0,0 l/m W-SW 0,00 h 0 W/m 0,8 km/h (0 Bft)
13.12.2015 02:00 -1,6 C 94 % 1021,6 hPa 0,0 l/m W-SW 0,00 h 0 W/m 1,1 km/h (0 Bft)
13.12.2015 03:00 -1,8 C 94 % 1021,6 hPa 0,0 l/m W-SW 0,00 h 0 W/m 1,9 km/h (1 Bft)
13.12.2015 04:00 -1,8 C 95 % 1021,4 hPa 0,0 l/m W-SW 0,00 h 0 W/m 2,4 km/h (1 Bft)
13.12.2015 05:00 -2,0 C 95 % 1021,5 hPa 0,0 l/m W-SW 0,00 h 0 W/m 2,3 km/h (1 Bft)
13.12.2015 06:00 -1,8 C 95 % 1021,9 hPa 0,0 l/m W-SW 0,00 h 0 W/m 5,2 km/h (1 Bft)
13.12.2015 07:00 -1,2 C 96 % 1022,2 hPa 0,0 l/m SW 0,00 h 0 W/m 8,2 km/h (2 Bft)
13.12.2015 08:00 -0,9 C 96 % 1022,8 hPa 0,0 l/m S-SW 0,08 h 16 W/m 5,8 km/h (2 Bft)
13.12.2015 09:00 -0,2 C 97 % 1023,4 hPa 0,0 l/m SW 0,00 h 49 W/m 9,3 km/h (2 Bft)
13.12.2015 10:00 1,2 C 98 % 1023,6 hPa 0,2 l/m SW 0,08 h 120 W/m 10,1 km/h (2 Bft)
13.12.2015 11:00 2,7 C 98 % 1023,3 hPa 0,0 l/m S-SW 0,75 h 201 W/m 6,6 km/h (2 Bft)
13.12.2015 12:00 5,1 C 97 % 1022,9 hPa 0,0 l/m SW 1,00 h 309 W/m 10,8 km/h (2 Bft)
13.12.2015 13:00 6,8 C 87 % 1022,5 hPa 0,0 l/m S-SW 1,00 h 251 W/m 9,1 km/h (2 Bft)
13.12.2015 14:00 7,5 C 80 % 1022,1 hPa 0,0 l/m SW 0,83 h 156 W/m 9,8 km/h (2 Bft)
13.12.2015 15:00 6,8 C 79 % 1022,0 hPa 0,0 l/m SW 0,00 h 36 W/m 3,3 km/h (1 Bft)
13.12.2015 16:00 5,1 C 81 % 1022,3 hPa 0,0 l/m N 0,00 h 9 W/m 0,1 km/h (0 Bft)
13.12.2015 17:00 2,9 C 84 % 1022,6 hPa 0,0 l/m N 0,00 h 0 W/m 0,0 km/h (0 Bft)
13.12.2015 18:00 1,3 C 87 % 1023,0 hPa 0,0 l/m N 0,00 h 0 W/m 0,0 km/h (0 Bft)
13.12.2015 19:00 0,4 C 89 % 1023,3 hPa 0,0 l/m N 0,00 h 0 W/m 0,0 km/h (0 Bft)
13.12.2015 20:00 -0,3 C 90 % 1023,5 hPa 0,0 l/m N 0,00 h 0 W/m 0,0 km/h (0 Bft)
13.12.2015 21:00 -0,9 C 91 % 1023,5 hPa 0,0 l/m N 0,00 h 0 W/m 0,0 km/h (0 Bft)
13.12.2015 22:00 -1,3 C 92 % 1023,4 hPa 0,0 l/m N 0,00 h 0 W/m 0,0 km/h (0 Bft)
13.12.2015 23:00 -1,7 C 92 % 1023,6 hPa 0,0 l/m N 0,00 h 0 W/m 0,1 km/h (0 Bft)
Min-Datum _ 10.12.15 07.12.15 13.12.15 - - - - 07.12.15
_ Min-Zeit 08:55 14:55 01:45 - - - - 00:00
Minimum _ -3.3 C 66 % 1021.3 hPa - - - - 0.0 km/h (0 Bft)
Max-Datum _ 07.12.15 07.12.15 09.12.15 09.12.15 - 07.12.15 13.12.15 12.12.15
_ Max-Zeit 15:05 10:30 19:35 07:20 - 09:50 12:20 10:45
Maximum _ 12.3 C 100 % 1040.0 hPa 2.6 l/m - 0.08 h 350 W/m 24.1 km/h
SW (4 Bft)
Durchschnitt _ 2.0 C 95 % 1031.1 hPa #7.4 l/m SW #16:55 h 95 W/m 5.6 km/h (1 Bft)